Regional Weather Roundup
Issued by NWS

Home | Current Version | Previous Version | Graphics & Text | Print | Product List | Glossary On
Versions: 1 2 3 4 5 6 7 8 9 10 11 12 13 14 15 16 17 18 19 20 21 22 23 24 25 26 27 28 29 30 31 32 33 34 35 36 37 38 39 40 41 42 43 44 45 46 47 48 49 50
000
ASUS43 KIND 210109
RWRIN

WEATHER ROUNDUP FOR INDIANA
NATIONAL WEATHER SERVICE INDIANAPOLIS IN
900 PM EDT MON APR 20 2015

NOTE: "FAIR" INDICATES FEW OR NO CLOUDS BELOW 12,000 FEET WITH NO
SIGNIFICANT WEATHER AND/OR OBSTRUCTIONS TO VISIBILITY.

* - STATION DOES NOT REPORT WEATHER SUCH AS PRECIPITATION OR FOG.

+ - STATION NOT QUALITY CONTROLLED BY THE NATIONAL WEATHER SERVICE.
    USE DATA WITH CAUTION...ESPECIALLY DEWPOINT AND RELATIVE
    HUMIDITY OBSERVATIONS.

INZ001>003-010>013-019-020-210200-
NORTHWEST INDIANA

CITY           SKY/WX    TMP DP  RH WIND       PRES   REMARKS
GARY /AIRPORT/ MOCLDY    48  25  40 W26G41    29.62R
KNOX *+        CLOUDY    45  19  36 W16G22    29.62R
LA PORTE +     CLOUDY    47  32  54 W24G32    29.62R
MICHIGAN CITY+ CLOUDY    45  28  53 W12G21    29.61R
MONTICELLO +   CLOUDY    46  37  70 W13G18    29.67R
RENSSELAER +   PTCLDY    45  37  76 W13       29.66R
VALPARAISO     MOCLDY    45  30  55 W16G26    29.62R

$$

LMZ046-743>745-210200-
SOUTHERN LAKE MICHIGAN

STATION/POSITION TIME  TEMP    WIND        PRES    WAVE
                       AIR SEA DIR/SP/G            HT
                 (UTC) (F)     (DEG/KT/KT) (MB)    (FT)
BURNS HARBOR     0100   47     270/ 23/ 29 1002.7S
MICHIGAN CITY    0100   46     240/ 27/ 30   N/A
5NW MICH CITY    0100   45 45  280/ 16/ 21   N/A     6

$$

INZ004-005-014>016-021>024-210200-
NORTH CENTRAL INDIANA

CITY           SKY/WX    TMP DP  RH WIND       PRES   REMARKS
ELKHART        CLOUDY    46 N/A N/A W14G21    29.60R
GOSHEN         CLOUDY    47  34  60 W18G28    29.60R
LOGANSPORT +   CLOUDY    45  36  70 W14G20    29.68R
ROCHESTER +    CLOUDY    48  34  57 W10G24    29.65R
SOUTH BEND     CLOUDY    47  32  56 W18       29.60R
WARSAW +       CLOUDY    45  32  61 W16G29    29.62R

$$

INZ006>009-017-018-025>027-210200-
NORTHEAST INDIANA

CITY           SKY/WX    TMP DP  RH WIND       PRES   REMARKS
ANGOLA *+      CLOUDY    46  36  66 W13       29.58R
AUBURN +       CLOUDY    46  34  61 SW9       29.60R
FORT WAYNE     CLOUDY    47  37  68 SW20G28   29.63R
HUNTINGTON +   CLOUDY    46  33  60 W18G26    29.64R

$$

INZ028-029-035-036-043>045-051>053-210200-
WEST CENTRAL INDIANA

CITY           SKY/WX    TMP DP  RH WIND       PRES   REMARKS
CRAWFORDSVL +  CLOUDY    45  32  59 W14G21    29.72R
GREENCASTLE +  CLOUDY    46  32  57 W8G16     29.74R
LAFAYETTE      CLOUDY    46  36  68 W7        29.69R
TERRE HAUTE    CLOUDY    50  35  56 W12G21    29.76R

$$

INZ030>032-037>040-046>048-054>057-064-065-210200-
CENTRAL INDIANA

CITY           SKY/WX    TMP DP  RH WIND       PRES   REMARKS
CP ATTERBURY + CLOUDY    50  34  53 W10G17    29.74R
COLUMBUS       CLOUDY    50  32  50 W10G17    29.74
FRANKFORT +    MOCLDY    47  37  70 SW17G25   29.71R
GREENWOOD *+   CLOUDY    48  34  57 W15G25    29.74R
INDIANAPOLIS   CLOUDY    48  35  60 W17       29.71R
-EAGLE CREEK   CLOUDY    48  37  65 W10G20    29.72R
KOKOMO *+      PTCLDY    46  36  66 W17G23    29.68R
MARION +       CLOUDY    45  36  71 W17       29.68R
MT COMFORT *+  MOCLDY    48  28  46 W17G28    29.72R
SHELBYVILLE    CLOUDY    50  36  58 W18G25    29.72R
ZIONSVILLE +   CLOUDY    47  35  62 W17G26    29.72R

$$

INZ033-034-041-042-049-050-058-059-210200-
EAST CENTRAL INDIANA

CITY           SKY/WX    TMP DP  RH WIND       PRES   REMARKS
MUNCIE         CLOUDY    48  36  63 W20G30    29.68R

$$

INZ060-061-067>069-081>083-085>088-210200-
SOUTHWEST INDIANA

CITY           SKY/WX    TMP DP  RH WIND       PRES   REMARKS
EVANSVILLE     PTCLDY    55  35  47 W6        29.81R
HUNTINGBURG *+ PTCLDY    52  36  54 NW10      29.80R
WASHINGTON +   CLOUDY    51  34  51 W10       29.78R

$$

INZ062-063-066-070>080-084-089>092-210200-
SOUTH CENTRAL AND SOUTHEAST INDIANA

CITY           SKY/WX    TMP DP  RH WIND       PRES   REMARKS
BEDFORD +      CLOUDY    52  36  54 W5        29.77
BLOOMINGTON    CLOUDY    50  35  56 W12G21    29.75R
MADISON *+     CLOUDY    52  34  50 W13G20    29.77R
NORTH VERNON + MOCLDY    48  36  61 W12       29.75R

$$



USA.gov is the U.S. government's official web portal to all federal, state and local government web resources and services.